NOAA 16 DEB, 41422

Orbit data source: Space-Track

NOAA 16 DEB, 41422 is space debris in SSO originally from a launch on Thu, 21 Sep 2000 UTC launched from the Air Force Western Test Range (AFWTR). Debris objects in space refer to the collection of defunct objects orbiting the Earth. Examples of debris include non-operational satellites, rocket bodies, and fragments generated from explosions, collisions, or faulty payload assembly.

Loading next visibility...
NOAA 16 DEB details
Identifier
41422, 2000-055LB
Orbit
SSO
Last TLE update20 hours ago
Origin
Flag of USNOAA (US)
ManufacturerUnknown
MissionSpacecraft
Bus & MotorUnknown
MassUnknown
Launch date (UTC)
2000-09-21 (24 years ago)
Launch vehicleUnknown
Launch site
Air Force Western Test Range (AFWTR)
Object type
Payload
Rocket body
Debris
Shape & HBRUnknown
Radar Cross SectionSmall (<0.1 m²)

Expand to show TLE details & history

TLE from 20 hours ago
0 NOAA 16 DEB
1 41422U 00055LB  24361.15406420  .00008265  00000-0  37350-2 0  9992
2 41422  98.7413  70.9547 0014576 298.5523  61.4187 14.22249399457576
Epoch: 2024-12-26T03:41Z
Definitive object data (Epoch: 2024-12-26T03:41:51.146Z)
Latitude-0.00006°
Longitude-79.64594°
Altitude815.665 km
Speed7.448 km/s
True Right ascension04h 43m 49s
True Declination0° 00' 00"
Sunlit
Object was in full shadow at TLE epoch
Visualization TLE readout
Latitude-18.87242°
Longitude98.16275°
Altitude826.262 km
Speed7.438 km/s
Apparent Right ascension14h 12m 26s
Apparent Declination-37° 14' 19"
Sunlit
Object is in daylight
Visualization observer readout
Local Sidereal Time22:35:30
Azimuth255.626° W
Elevation-48.176°
Doppler factor1
Orbital elements
Apogee altitude825.397 km
Perigee altitude804.428 km
Semi-major axis7,193.05 km
Eccentricity0.0014576
Inclination98.7413°
RAAN70.9547°
Arg. of periapsis298.5523°
True anomaly61.5655°
Mean anomaly61.4187°
Eccentric anomaly61.49209°
Mean motion3.55773 °/min
BSTAR0.003735
Orbital period101.19 mins
Loading maneuver chart data...
Loading historical data...
Loading historical data...
Loading historical data...
Loading historical data...
Loading historical data...
Loading historical data...
Loading historical data...

NOAA 16 DEB Visibility forecast

Observer location: undefined°, undefined

Span
Click to sort rows by Start time (UTC) header in descending order
Start Az.
Max El. time (UTC)
Max El. Az.
Max El.
End time (UTC)
End Az.
6 mins2024-12-27 03:30:13.518Z96.976° ESE2024-12-27 03:33:13.518Z59.617° ENE16.836°2024-12-27 03:36:13.518Z23.953° NE
8 mins2024-12-27 05:09:13.518Z183.893° SSW2024-12-27 05:12:13.518Z239.623° WSW40.999°2024-12-27 05:17:13.518Z337.936° N
9 mins2024-12-27 17:26:13.518Z27.306° NE2024-12-27 17:30:13.518Z106.169° ESE39.508°2024-12-27 17:35:13.518Z178.48° S
6 mins2024-12-27 19:07:13.518Z329.683° NNW2024-12-27 19:09:13.518Z303.803° NW18.322°2024-12-27 19:13:13.518Z254.224° W
|